Flag for Germany Weather past 2 weeks in Riesa, Saxony, Germany

Now
61 °F

Overcast.


Feels Like: 61 °F
Forecast: 54 / 68 °F
Wind: 2 mph from South

Location: Dresden-Klotzsche

Current Time: Sep 20, 2014 at 4:55:51 AM

Latest Report: Sep 20, 2014 at 4:00 AM


Visibility: 4 mi

Pressure: 29.94 "Hg

Humidity: 97%

Dew point: 60 °F

Location of RiesaLocation

Historic Weather in Riesa — Graph

°F

Riesa temperature yesterday

Maximum temperature yesterday: 71 °F (at 4:00 PM)
Minimum temperature yesterday: 58 °F (at 7:00 AM)
Average temperature yesterday: 63 °F

Past Weeks' High & Low Weather Summary

 TemperatureHumidityPressure
High80 °F (Sep 6, 3:00 PM)100% (Sep 15, 8:00 AM)30.13 "Hg (Sep 15, 8:00 AM)
Low53 °F (Sep 11, 7:00 AM)45% (Sep 17, 3:00 PM)29.86 "Hg (Sep 6, 4:00 PM)
Average63 °F82%30.01 "Hg
* Reported Sep 5 3:00 AM — Sep 20 3:00 AM, Riesa, Weather by CustomWeather, © 2014

Note: Actual official high and low records may vary slightly from our data, if they occured in-between our weather recording intervals... More about our weather records

Advertising

Riesa weather history for previous 24 hours

 ConditionsComfort  
Time TempWeatherWind HumidityBarometerVisibility
3:00 AM
Sep 20
61 °FLight rain. Overcast.2 mph98%29.94 "Hg4 mi
2:00 AM61 °FLight rain. Overcast.2 mph98%29.94 "Hg3 mi
1:00 AM61 °FOvercast.2 mph96%29.94 "Hg6 mi
12:00 AM61 °FFog.2 mph96%29.94 "Hg4 mi
10:00 PM
Sep 19
62 °FOvercast.3 mph93%29.93 "Hg7 mi
9:00 PM63 °FLight rain. Overcast.3 mph93%29.94 "Hg7 mi
8:00 PM63 °FLight rain. Overcast.6 mph93%29.93 "Hg6 mi
7:00 PM64 °FFog.5 mph90%29.92 "Hg4 mi
6:00 PM65 °FThunderstorms. Overcast.3 mph90%29.91 "Hg11 mi
5:00 PMN/APassing clouds.No windN/AN/A1 mi
4:00 PM71 °FOvercast.3 mph65%29.90 "Hg17 mi
3:00 PM71 °FOvercast.3 mph66%29.91 "Hg22 mi
2:00 PM70 °FPartly sunny.5 mph62%29.91 "Hg19 mi
1:00 PM71 °FPartly sunny.6 mph61%29.93 "Hg19 mi
12:00 PM66 °FOvercast.5 mph69%29.94 "Hg17 mi
10:00 AM62 °FOvercast.6 mph77%29.96 "Hg17 mi
9:00 AM60 °FOvercast.6 mph78%29.95 "Hg17 mi
8:00 AM59 °FPartly sunny.6 mph79%29.95 "Hg17 mi
7:00 AM58 °FPartly sunny.6 mph81%29.95 "Hg15 mi
6:00 AM58 °FPassing clouds.6 mph80%29.94 "Hg16 mi
5:00 AM59 °FPassing clouds.6 mph78%29.94 "Hg16 mi
4:00 AM59 °FPassing clouds.6 mph77%29.94 "Hg17 mi
Weather by CustomWeather, © 2014

See weather overviewHow to use our weather pages